PAKSAT-MM1

Last updated on Fri Feb 07 2025 00:02:46 GMT+0000 (Coordinated Universal Time)

1 59915U 24104A 25037.57614069 .00000152 00000+0 00000+0 0 9991 2 59915 0.0256 111.1795 0002265 202.2577 69.1168 1.00273919 2611
UTC large
Height (km)
Speed (km/s)
/
Latitude / Longitude
Inclination (degrees)
Orbital Period (minutes)
Azimuth
Elevation
Range (km)
Doppler Factor

Next 0 passes for location: London (51.5072 / 0.1276)

Sorry there are no passes over London.